Fort Mitchell, AL

7:10 PM CST on February 27, 2017 (GMT -0600)
Lawson Army Air Field

Weather History for KLSF - December, 2013

Change the Weather History Date:

Saturday, December 14, 2013

  Actual Average Record
Temperature  
Mean Temperature 55 °F -  
Max Temperature 68 °F 57 °F 75 °F (2001)
Min Temperature 42 °F 33 °F 13 °F (2010)
Degree Days  
Heating Degree Days 10    
Growing Degree Days 5 (Base 50)    
Moisture  
Dew Point 56 °F    
Average Humidity 96    
Maximum Humidity 100    
Minimum Humidity 85    
Precipitation  
Precipitation 0.52 in - - ()
Sea Level Pressure  
Sea Level Pressure 29.92 in    
Wind  
Wind Speed 5 mph (SW)    
Max Wind Speed 15 mph    
Max Gust Speed 28 mph    
Visibility 9 miles    
Events Rain , Thunderstorm    
Averages and records for this station are not official NWS values.
T = Trace of Precipitation, MM = Missing Value Source: NWS Daily Summary

Daily Weather History Graph

Daily Weather History Graph

Search for Another Location

Airport or City:

Trip Planner

Search our weather history database for the weather conditions in past years. The results will help you decide how hot, cold, wet, or windy it might be!

Date:

Astronomy

Dec. 14, 2013 Rise Set
Actual Time 7:33 AM EST 5:36 PM EST
Civil Twilight 7:06 AM EST 6:03 PM EST
Nautical Twilight 6:35 AM EST 6:33 PM EST
Astronomical Twilight 6:05 AM EST 7:03 PM EST
Moon 3:52 PM EST (12/14) 4:59 AM EST (12/14)
Length of Visible Light 10h 57m
Length of Day
10h 02m
Waxing Gibbous, 93% of the Moon is Illuminated
Dec 14
Waxing Gibbous
Dec 17
Full
Dec 25
Last Quarter
Jan 1
New
Jan 7
First Quarter

Hourly Weather History & Observations

Time (EST) Temp. Windchill Dew Point Humidity Pressure Visibility Wind Dir Wind Speed Gust Speed Precip Events Conditions
12:58 AM 44.1 °F 41.5 °F 39.7 °F 85% 30.14 in 10.0 mi North 4.6 mph - N/A   Overcast
1:58 AM 42.4 °F 39.6 °F 39.7 °F 90% 30.12 in 10.0 mi North 4.6 mph - N/A   Clear
2:13 AM 44.6 °F 41.4 °F 41.0 °F 87% 30.11 in 10.0 mi North 5.8 mph - N/A   Mostly Cloudy
2:58 AM 45.3 °F 44.0 °F 42.6 °F 90% 30.08 in 10.0 mi SSE 3.5 mph - N/A   Overcast
3:13 AM 46.4 °F - 42.8 °F 87% 30.08 in 10.0 mi Calm Calm - N/A   Mostly Cloudy
3:23 AM 44.6 °F 43.1 °F 42.8 °F 93% 30.08 in 10.0 mi North 3.5 mph - N/A   Mostly Cloudy
3:58 AM 46.2 °F - 43.7 °F 91% 30.07 in 10.0 mi North 2.3 mph - N/A   Overcast
4:38 AM 46.4 °F 45.2 °F 44.6 °F 93% 30.05 in 10.0 mi NNW 3.5 mph - N/A   Overcast
4:43 AM 46.4 °F 45.2 °F 44.6 °F 93% 30.04 in 10.0 mi NNE 3.5 mph - N/A   Overcast
4:53 AM 46.4 °F 44.3 °F 44.6 °F 93% 30.03 in 10.0 mi NNE 4.6 mph - N/A   Mostly Cloudy
4:58 AM 46.9 °F - 44.2 °F 90% 30.04 in 10.0 mi NNE 3.5 mph - N/A   Mostly Cloudy
5:03 AM 46.4 °F 45.2 °F 44.6 °F 93% 30.03 in 10.0 mi North 3.5 mph - N/A   Mostly Cloudy
5:08 AM 46.4 °F 45.2 °F 44.6 °F 93% 30.03 in 10.0 mi NNE 3.5 mph - N/A   Mostly Cloudy
5:53 AM 50.0 °F - 48.2 °F 94% 30.02 in 10.0 mi East 4.6 mph - N/A   Overcast
5:58 AM 49.3 °F - 47.5 °F 94% 30.03 in 10.0 mi ESE 4.6 mph - N/A   Overcast
6:28 AM 51.8 °F - 50.0 °F 94% 30.01 in 10.0 mi ESE 5.8 mph - N/A   Overcast
6:38 AM 51.8 °F - 50.0 °F 94% 30.01 in 10.0 mi ESE 5.8 mph - N/A   Overcast
6:48 AM 51.8 °F - 50.0 °F 94% 30.00 in 10.0 mi ESE 6.9 mph - N/A   Overcast
6:58 AM 52.7 °F - 50.2 °F 91% 30.01 in 10.0 mi SE 6.9 mph - N/A   Overcast
7:03 AM 53.6 °F - 50.0 °F 88% 30.00 in 10.0 mi SSE 5.8 mph - N/A   Overcast
7:08 AM 53.6 °F - 50.0 °F 88% 29.99 in 10.0 mi SE 5.8 mph - N/A   Overcast
7:13 AM 53.6 °F - 50.0 °F 88% 29.99 in 10.0 mi SE 6.9 mph - N/A   Overcast
7:33 AM 53.6 °F - 51.8 °F 94% 29.98 in 10.0 mi SSE 5.8 mph - N/A   Overcast
7:58 AM 54.1 °F - 51.6 °F 91% 29.99 in 10.0 mi SE 6.9 mph - N/A   Overcast
8:13 AM 53.6 °F - 51.8 °F 94% 29.97 in 10.0 mi SSE 5.8 mph - N/A   Mostly Cloudy
8:18 AM 53.6 °F - 51.8 °F 94% 29.97 in 10.0 mi SSE 6.9 mph - N/A   Mostly Cloudy
8:33 AM 55.4 °F - 53.6 °F 94% 29.97 in 10.0 mi SSE 6.9 mph - N/A   Mostly Cloudy
8:38 AM 55.4 °F - 53.6 °F 94% 29.97 in 10.0 mi SE 6.9 mph - N/A   Mostly Cloudy
8:43 AM 57.2 °F - 53.6 °F 88% 29.97 in 10.0 mi SE 6.9 mph - N/A   Overcast
8:58 AM 57.4 °F - 54.5 °F 90% 29.97 in 10.0 mi SSE 10.4 mph - N/A   Overcast
9:20 AM 57.2 °F - 55.4 °F 94% 29.95 in 10.0 mi SSE 11.5 mph - N/A Rain Light Rain
9:58 AM 57.9 °F - 57.6 °F 99% 29.95 in 10.0 mi SSE 9.2 mph - 0.00 in Rain Light Rain
10:03 AM 57.2 °F - 57.2 °F 100% 29.94 in 10.0 mi SSE 10.4 mph - N/A Rain Light Rain
10:08 AM 59.0 °F - 57.2 °F 94% 29.94 in 10.0 mi SSE 8.1 mph - N/A   Overcast
10:58 AM 61.2 °F - 60.3 °F 97% 29.92 in 10.0 mi SSE 10.4 mph - 0.00 in   Overcast
11:52 AM 62.6 °F - 60.8 °F 94% 29.89 in 10.0 mi SSE 5.8 mph - N/A Rain Light Rain
11:58 AM 62.8 °F - 61.2 °F 94% 29.90 in 10.0 mi South 5.8 mph - 0.01 in Rain Light Rain
12:33 PM 62.6 °F - 62.6 °F 100% 29.85 in 10.0 mi South 6.9 mph - N/A Rain Light Rain
12:34 PM 62.6 °F - 62.6 °F 100% 29.85 in 10.0 mi South 6.9 mph - N/A   Overcast
12:48 PM 62.6 °F - 62.6 °F 100% 29.84 in 6.0 mi South 9.2 mph - N/A Rain Light Rain
12:58 PM 63.3 °F - 63.0 °F 99% 29.84 in 4.0 mi South 9.2 mph - 0.04 in Rain Light Rain
1:13 PM 62.6 °F - 62.6 °F 100% 29.82 in 4.0 mi South 8.1 mph - N/A Rain Heavy Rain
1:28 PM 64.4 °F - 64.4 °F 100% 29.81 in 2.0 mi WSW 4.6 mph - N/A Rain Light Rain
1:38 PM 64.4 °F - 64.4 °F 100% 29.81 in 8.0 mi West 15.0 mph 20.7 mph N/A Rain Light Rain
1:43 PM 64.4 °F - 64.4 °F 100% 29.82 in 1.0 mi SW 10.4 mph 27.6 mph N/A Rain Heavy Rain
1:48 PM 64.4 °F - 64.4 °F 100% 29.80 in 0.8 mi NW 9.2 mph 27.6 mph N/A Rain Heavy Rain
1:53 PM 64.4 °F - 64.4 °F 100% 29.82 in 2.0 mi WNW 9.2 mph 16.1 mph N/A Rain Heavy Rain
1:54 PM 64.4 °F - 64.4 °F 100% 29.82 in 5.0 mi West 6.9 mph 16.1 mph N/A Rain , Thunderstorm Heavy Thunderstorms and Rain
1:58 PM 64.0 °F - 63.9 °F 99% 29.83 in 7.0 mi West 6.9 mph - 0.36 in Rain , Thunderstorm Thunderstorms and Rain
2:03 PM 64.4 °F - 64.4 °F 100% 29.83 in 10.0 mi WNW 8.1 mph - N/A Rain , Thunderstorm Light Thunderstorms and Rain
2:18 PM 62.6 °F - 62.6 °F 100% 29.83 in 7.0 mi West 4.6 mph - N/A Rain , Thunderstorm Thunderstorms and Rain
2:20 PM 62.6 °F - 62.6 °F 100% 29.83 in 8.0 mi WSW 2.3 mph - N/A Rain Rain
2:30 PM 62.6 °F - 62.6 °F 100% 29.82 in 10.0 mi WSW 2.3 mph - N/A Rain Light Rain
2:42 PM 62.6 °F - 62.6 °F 100% 29.82 in 10.0 mi SSW 3.5 mph - N/A   Overcast
2:58 PM 64.6 °F - 64.4 °F 99% 29.83 in 10.0 mi SSW 2.3 mph - 0.05 in   Overcast
3:13 PM 66.2 °F - 66.2 °F 100% 29.81 in 10.0 mi Variable 2.3 mph - N/A   Scattered Clouds
3:43 PM 68.0 °F - 66.2 °F 94% 29.81 in 10.0 mi SW 6.9 mph - N/A   Mostly Cloudy
3:58 PM 67.1 °F - 66.7 °F 99% 29.83 in 10.0 mi WSW 5.8 mph - N/A   Overcast
4:13 PM 66.2 °F - 66.2 °F 100% 29.83 in 10.0 mi SW 5.8 mph - N/A   Overcast
4:53 PM 66.2 °F - 66.2 °F 100% 29.84 in 10.0 mi West 6.9 mph - N/A   Mostly Cloudy
4:58 PM 66.6 °F - 66.2 °F 99% 29.85 in 10.0 mi West 5.8 mph - N/A   Mostly Cloudy
5:03 PM 66.2 °F - 66.2 °F 100% 29.84 in 10.0 mi West 4.6 mph - N/A   Scattered Clouds
5:38 PM 64.4 °F - 64.4 °F 100% 29.85 in 10.0 mi WNW 4.6 mph - N/A   Mostly Cloudy
5:48 PM 64.4 °F - 64.4 °F 100% 29.85 in 10.0 mi WNW 6.9 mph - N/A   Scattered Clouds
5:58 PM 64.0 °F - 63.9 °F 99% 29.85 in 10.0 mi WNW 3.5 mph - N/A   Scattered Clouds
6:58 PM 62.2 °F - 61.9 °F 99% 29.87 in 10.0 mi WNW 4.6 mph - N/A   Partly Cloudy
7:58 PM 61.0 °F - 60.6 °F 99% 29.88 in 10.0 mi WNW 4.6 mph - 0.00 in Rain Light Rain
8:24 PM 59.0 °F - 59.0 °F 100% 29.86 in 10.0 mi NW 5.8 mph - N/A   Partly Cloudy
8:58 PM 59.0 °F - 58.6 °F 99% 29.89 in 10.0 mi NW 5.8 mph - 0.00 in   Overcast
9:02 PM 59.0 °F - 59.0 °F 100% 29.87 in 10.0 mi NW 4.6 mph - N/A Rain Light Rain
9:16 PM 59.0 °F - 59.0 °F 100% 29.87 in 10.0 mi NW 3.5 mph - N/A   Mostly Cloudy
9:58 PM 58.1 °F - 57.7 °F 99% 29.91 in 10.0 mi NW 4.6 mph - 0.00 in   Overcast
10:47 PM 59.0 °F - 57.2 °F 94% 29.92 in 10.0 mi West 2.3 mph - N/A Rain Light Rain
10:52 PM 59.0 °F - 59.0 °F 100% 29.92 in 7.0 mi West 3.5 mph - N/A Rain Light Rain
10:58 PM 58.3 °F - 58.1 °F 99% 29.93 in 6.0 mi West 2.3 mph - 0.01 in Rain Rain
11:28 PM 57.2 °F - 57.2 °F 100% 29.90 in 10.0 mi SSE 3.5 mph - N/A Rain Light Rain
11:58 PM 56.3 °F - 56.3 °F 100% 29.89 in 10.0 mi SE 8.1 mph - 0.05 in Rain Light Rain